User: anonymous   Login
Location: Auckland
(36.8670°S, 174.7670°E)
Time: 11:30:30
(UTC+13:00)
Language:

Cosmos 2208 Rocket - Orbit

View from above orbital plane
View from above orbital plane
View from above satellite
View from above satellite

Ground track
Ground track

The orbit data is extracted from the following two-line orbital elements,

1 22081U 92053B   19290.28559325 -.00000025  00000-0  21198-6 0  9997
2 22081  74.0434 320.4925 0034696  80.5917 279.9154 14.33457877420934
Epoch (UTC): 17 October 2019 06:51:15
Eccentricity: 0.0034696
inclination: 74.0434°
perigee height: 755 km
apogee height: 805 km
right ascension of ascending node: 320.4925°
argument of perigee: 80.5917°
revolutions per day: 14.33457877
mean anomaly at epoch: 279.9154°
orbit number at epoch: 42093

The dashed part of the orbit path shows where the satellite is in the earth's shadow,  

DLR